WFOV (USA 332)

Last updated on Fri Dec 19 2025 00:02:53 GMT+0000 (Coordinated Universal Time)

1 52940U 22073A 25352.66799384 -.00000340 00000+0 00000+0 0 9999 2 52940 3.2470 80.8803 0002475 142.9462 223.4447 1.00273909 12562
UTC large
Height (km)
Speed (km/s)
/
Latitude / Longitude
Inclination (degrees)
Orbital Period (minutes)
Azimuth
Elevation
Range (km)
Doppler Factor

Next 0 passes for location: London (51.5072 / 0.1276)

Sorry there are no passes over London.